Galveston, TX

3:08 AM CDT on July 21, 2017 (GMT -0500)
Scholes International At Galveston

Weather History for KGLS - November, 2013

Change the Weather History Date:

Saturday, November 23, 2013

  Actual Average Record
Temperature  
Mean Temperature 51 °F 63 °F  
Max Temperature 53 °F 69 °F 79 °F (2004)
Min Temperature 48 °F 56 °F 35 °F (1929)
Degree Days  
Heating Degree Days 14 4  
Month to date heating degree days 62 56  
Since 1 July heating degree days 62 65  
Cooling Degree Days 0 2  
Month to date cooling degree days 66 86  
Year to date cooling degree days 3311 3278  
Moisture  
Dew Point 50 °F    
Average Humidity 97    
Maximum Humidity 100    
Minimum Humidity 93    
Precipitation  
Precipitation 0.09 in 0.13 in 1.72 in (1971)
Month to date precipitation 0.61 3.47  
Year to date precipitation 36.75 46.20  
Snow  
Snow 0.00 in - 0.00 in (2002)
Month to date snowfall 0.0  
Since 1 July snowfall 0.0  
Since 1 September snowfall 0.0  
Snow Depth 0.00 in    
Sea Level Pressure  
Sea Level Pressure 30.28 in    
Wind  
Wind Speed 24 mph (North)    
Max Wind Speed 30 mph    
Max Gust Speed 39 mph    
Visibility 7 miles    
Events Rain    
T = Trace of Precipitation, MM = Missing Value Source: NWS Daily Summary

Daily Weather History Graph

Daily Weather History Graph

Search for Another Location

Airport or City:

Trip Planner

Search our weather history database for the weather conditions in past years. The results will help you decide how hot, cold, wet, or windy it might be!

Date:

Astronomy

Nov. 23, 2013 Rise Set
Actual Time 6:49 AM CST 5:21 PM CST
Civil Twilight 6:24 AM CST 5:47 PM CST
Nautical Twilight 5:55 AM CST 6:16 PM CST
Astronomical Twilight 5:26 AM CST 6:44 PM CST
Moon 10:40 PM CST (11/23) 11:15 AM CST (11/23)
Length of Visible Light 11h 22m
Length of Day
10h 31m
Waning Gibbous, 69% of the Moon is Illuminated
Nov 23
Waning Gibbous
Nov 25
Last Quarter
Dec 2
New
Dec 9
First Quarter
Dec 17
Full

Hourly Weather History & Observations

Time (CST) Temp. Dew Point Humidity Pressure Visibility Wind Dir Wind Speed Gust Speed Precip Events Conditions
12:52 AM 50.0 °F 50.0 °F 100% 30.23 in 10.0 mi NNW 21.9 mph 29.9 mph N/A   Overcast
1:52 AM 50.0 °F 50.0 °F 100% 30.22 in 10.0 mi NNW 25.3 mph 31.1 mph N/A   Overcast
2:52 AM 50.0 °F 50.0 °F 100% 30.23 in 10.0 mi NNW 25.3 mph 29.9 mph N/A   Overcast
3:14 AM 50.0 °F 50.0 °F 100% 30.22 in 10.0 mi NNW 23.0 mph - N/A   Overcast
3:52 AM 50.0 °F 50.0 °F 100% 30.23 in 10.0 mi NNW 21.9 mph 28.8 mph N/A   Overcast
4:52 AM 50.0 °F 50.0 °F 100% 30.22 in 9.0 mi North 24.2 mph 29.9 mph N/A   Overcast
5:52 AM 50.0 °F 50.0 °F 100% 30.23 in 8.0 mi North 24.2 mph 29.9 mph N/A   Overcast
6:52 AM 50.0 °F 50.0 °F 100% 30.26 in 2.0 mi NNW 24.2 mph 31.1 mph 0.00 in Rain Light Rain
7:27 AM 51.8 °F 51.8 °F 100% 30.26 in 1.2 mi North 20.7 mph - 0.00 in Rain Light Rain
7:52 AM 51.1 °F 51.1 °F 100% 30.27 in 1.2 mi North 23.0 mph 31.1 mph 0.00 in Rain Light Rain
8:52 AM 51.1 °F 51.1 °F 100% 30.29 in 1.8 mi North 18.4 mph 31.1 mph 0.00 in   Overcast
9:52 AM 51.1 °F 51.1 °F 100% 30.30 in 3.0 mi North 21.9 mph 31.1 mph N/A   Overcast
10:52 AM 52.0 °F 52.0 °F 100% 30.30 in 3.0 mi North 20.7 mph 33.4 mph N/A   Overcast
11:52 AM 52.0 °F 52.0 °F 100% 30.29 in 4.0 mi North 21.9 mph 31.1 mph 0.00 in   Overcast
12:52 PM 52.0 °F 51.1 °F 97% 30.27 in 4.0 mi North 24.2 mph 32.2 mph 0.00 in Rain Light Rain
1:50 PM 51.8 °F 51.8 °F 100% 30.26 in 1.5 mi North 19.6 mph 31.1 mph 0.01 in Rain Light Rain
1:52 PM 51.1 °F 51.1 °F 100% 30.26 in 1.5 mi North 24.2 mph 29.9 mph 0.01 in Rain Light Rain
1:59 PM 51.8 °F 51.8 °F 100% 30.26 in 5.0 mi North 23.0 mph 31.1 mph 0.00 in Rain Light Rain
2:32 PM 51.8 °F 51.8 °F 100% 30.26 in 1.5 mi North 25.3 mph 32.2 mph 0.00 in Rain Light Rain
2:52 PM 51.1 °F 51.1 °F 100% 30.25 in 1.5 mi North 26.5 mph 33.4 mph 0.00 in   Overcast
2:59 PM 51.8 °F 51.8 °F 100% 30.25 in 7.0 mi North 23.0 mph 33.4 mph 0.01 in   Overcast
3:52 PM 51.1 °F 50.0 °F 96% 30.26 in 8.0 mi North 25.3 mph 32.2 mph 0.03 in   Overcast
4:52 PM 51.1 °F 48.9 °F 92% 30.27 in 10.0 mi North 26.5 mph 34.5 mph 0.01 in Rain Light Rain
5:52 PM 50.0 °F 48.9 °F 96% 30.28 in 7.0 mi North 25.3 mph 35.7 mph 0.00 in   Overcast
6:52 PM 50.0 °F 48.0 °F 93% 30.31 in 10.0 mi North 31.1 mph 39.1 mph 0.02 in   Overcast
7:52 PM 50.0 °F 48.0 °F 93% 30.32 in 10.0 mi NNE 27.6 mph 33.4 mph N/A   Overcast
8:52 PM 50.0 °F 48.0 °F 93% 30.34 in 10.0 mi NNE 23.0 mph 29.9 mph 0.02 in   Overcast
9:30 PM 50.0 °F 48.2 °F 94% 30.35 in 10.0 mi NNE 25.3 mph 31.1 mph N/A   Overcast
9:52 PM 48.9 °F 46.9 °F 93% 30.34 in 10.0 mi NNE 27.6 mph 33.4 mph N/A   Overcast
10:52 PM 48.9 °F 46.0 °F 90% 30.36 in 10.0 mi NNE 26.5 mph 33.4 mph N/A   Overcast
11:40 PM 48.2 °F 42.8 °F 82% 30.36 in 10.0 mi NNE 27.6 mph 36.8 mph N/A   Overcast
11:52 PM 48.0 °F 43.0 °F 83% 30.36 in 10.0 mi NNE 24.2 mph 34.5 mph N/A   Overcast